[[{"header":{"parameterUnit":"m.s-1","parameterCategory":1,"la1":30.2991,"la2":30.254,"lo1":-89.0895,"lo2":-89.0444,"dy":0.0017,"dx":0.0017,"nx":28,"ny":28,"refTime":"2023-11-21T03:00:00:Z","depth":0,"parameterNumber":2,"parameterNumberName":"U-component_of_WINDS"},"data":[0,0,0,0,0,0,0,0,0,0,0,0,0,0,0,0,0,0,0,0,0,0,0,0,0,0,0,0,0,0,0,0,0,0,0,0,0,0,0,0,0,0,0,0,0,0,0,0,0,0,0,0,0,0,0,0,0,0,2.4135,2.4135,0,2.4116,2.4116,2.4116,2.4088,2.4087,2.4087,2.4087,2.4069,2.4069,2.4069,0,0,0,0,0,0,0,0,0,0,0,0,0,2.4152,2.4152,2.4135,2.4135,2.4135,2.4116,2.4116,2.4116,2.4088,2.4087,2.4087,2.4086,2.4069,2.4069,2.4069,0,0,0,0,0,0,0,0,0,0,0,0,0,2.414,2.4152,2.4135,2.4119,2.4117,2.4116,2.4116,2.4116,2.4088,2.4087,2.4087,2.4086,2.4069,2.4069,2.4069,2.4084,0,0,2.4069,2.4069,0,0,0,0,0,0,0,0,2.4141,2.414,2.4121,2.412,2.4118,2.4104,2.4115,2.4105,2.4088,2.4099,2.4087,2.4086,2.4081,2.408,2.4078,2.4083,2.4082,2.4069,2.4069,2.4069,2.4069,0,0,0,0,0,0,0,2.4142,2.414,2.4128,2.4121,2.4119,2.4114,2.4111,2.4113,2.4095,2.4098,2.4096,2.4094,2.408,2.4078,2.4078,2.4082,2.4069,2.4069,2.4069,2.4069,2.4102,2.4103,0,0,0,0,0,0,2.4145,2.4141,2.4128,2.4127,2.4128,2.4114,2.4111,2.4109,2.4095,2.4092,2.4095,2.4093,2.4079,2.4078,2.4077,2.4096,2.4069,2.4069,2.4069,2.4101,2.4102,2.4103,0,0,0,0,0,0,2.4145,2.4144,2.4129,2.4134,2.4131,2.4114,2.4112,2.4109,2.4107,2.4092,2.4089,2.4096,2.4078,2.4077,2.4083,2.4094,2.4069,2.4069,2.41,2.4101,2.4103,2.4131,0,0,0,0,0,0,2.4146,2.4144,2.4148,2.4134,2.4131,2.4134,2.4113,2.4109,2.4107,2.4104,2.4092,2.409,2.4077,2.4083,2.4083,2.4094,2.4069,2.4099,2.4101,2.4102,2.4129,2.4134,2.4137,0,0,0,0,0,2.4146,2.4156,2.4148,2.4147,2.4136,2.4135,2.4133,2.4118,2.4108,2.4113,2.4104,2.409,2.4093,2.4084,2.4084,2.4095,2.4098,2.41,2.4102,2.4128,2.4133,2.4137,0,0,0,0,0,0,2.4172,2.4154,2.4145,2.415,2.4144,2.413,2.4135,2.4124,2.4121,2.4118,2.4101,2.4099,2.4108,2.4102,2.4092,2.411,2.4094,2.4096,2.4114,2.4118,2.4122,2.4124,2.4069,0,0,0,0,0,2.4178,2.4178,2.4163,2.4169,2.4167,2.4152,2.4151,2.414,2.4133,2.4131,2.4122,2.4117,2.4117,2.4117,2.4116,2.4129,2.4128,2.4137,2.4141,2.4144,2.4146,2.4156,2.416,2.411,2.411,2.4109,0,0,2.4191,2.4181,2.4182,2.4174,2.4168,2.417,2.4149,2.4151,2.4153,2.4131,2.4136,2.4131,2.4124,2.4134,2.4138,2.4129,2.416,2.4147,2.4149,2.4149,2.4158,2.4163,2.4167,2.4111,2.4111,2.411,0,0,2.4215,2.4207,2.4213,2.4208,2.42,2.419,2.4192,2.418,2.4175,2.4181,2.4166,2.4168,2.4168,2.4165,2.4164,2.4192,2.418,2.4192,2.4213,2.4222,2.4226,2.423,2.4242,2.4246,2.4194,2.4194,2.4194,0,2.4232,2.4233,2.4217,2.4221,2.422,2.4201,2.4208,2.4204,2.4196,2.4197,2.4187,2.4189,2.4183,2.4194,2.4202,2.42,2.4204,2.4193,2.4227,2.423,2.4233,2.4245,2.4249,2.4196,2.4196,2.4196,2.4195,0,2.4256,2.4257,2.4263,2.4256,2.4256,2.4261,2.4249,2.425,2.4241,2.4234,2.4242,2.4234,2.4233,2.4235,2.4225,2.4246,2.4241,2.423,2.4213,2.424,2.4251,2.4255,2.4198,2.4198,2.4197,2.4197,0,0,2.4292,2.428,2.4283,2.4281,2.4273,2.4274,2.4281,2.428,2.4282,2.4279,2.4285,2.4288,2.4278,2.4277,2.4267,2.4276,2.4302,2.4263,2.4263,2.4272,2.4328,2.4337,2.4342,2.4295,2.4295,2.4296,2.4329,0,2.4316,2.4325,2.4313,2.4326,2.4328,2.4313,2.4319,2.4316,2.431,2.4313,2.4307,2.431,2.4296,2.4295,2.4303,2.4297,2.4313,2.4295,2.4303,2.4303,2.4305,2.4347,2.4356,2.4387,2.4333,2.4333,2.4334,0,2.4343,2.4342,2.4355,2.4349,2.435,2.4355,2.4356,2.4358,2.4356,2.4351,2.4352,2.4341,2.435,2.4334,2.4347,2.4335,2.4338,2.4337,2.4338,2.4338,2.432,2.435,2.4397,2.4402,2.434,2.4339,2.4339,0,2.4372,2.4373,2.4382,2.4381,2.4374,2.4379,2.4376,2.4373,2.4374,2.4375,2.4377,2.4379,2.438,2.4384,2.4375,2.4364,2.4391,2.4373,2.4389,2.439,2.4395,2.4395,2.4444,2.4396,2.4396,2.4396,2.4396,0,2.4399,2.4408,2.4395,2.44,2.4411,2.4399,2.4411,2.4407,2.4405,2.4411,2.4398,2.4405,2.4393,2.4399,2.4393,2.4407,2.4407,2.4405,2.4404,2.4407,2.4407,2.4409,2.4407,2.4397,2.4397,2.4397,2.4396,0,2.4432,2.4423,2.4432,2.4426,2.4424,2.4433,2.4428,2.4434,2.4429,2.4438,2.4439,2.4431,2.4438,2.4431,2.4437,2.4433,2.4452,2.4447,2.4453,2.4452,2.4469,2.4468,2.4521,2.4528,2.4475,2.4475,2.4475,0,2.445,2.4457,2.4452,2.4455,2.4454,2.4459,2.4461,2.4451,2.4454,2.4454,2.4461,2.4467,2.4471,2.4484,2.448,2.4486,2.4481,2.45,2.4482,2.4486,2.4484,2.4484,2.4486,2.4503,2.4504,2.4504,2.4505,0,2.4484,2.4481,2.4484,2.4487,2.449,2.4492,2.4492,2.4496,2.4486,2.4491,2.4498,2.4502,2.451,2.4517,2.4522,2.4522,2.4513,2.4511,2.4515,2.4518,2.4522,2.4522,2.4464,2.4509,2.4509,2.4508,2.4508,2.4508,2.4511,2.4518,2.4516,2.4522,2.4522,2.4524,2.453,2.4527,2.4533,2.4538,2.4532,2.4542,2.4544,2.455,2.4551,2.456,2.4553,2.4558,2.456,2.4562,2.4565,2.4521,2.4561,2.4561,2.4561,2.4561,2.456,0,2.4546,2.4545,2.455,2.4553,2.4558,2.4549,2.4551,2.4556,2.4565,2.4567,2.4572,2.4582,2.459,2.4589,2.4596,2.4604,2.4601,2.4607,2.4607,2.4607,2.457,2.4566,2.461,2.461,2.461,2.461,2.461,2.461,2.4565,2.4577,2.4574,2.4587,2.4586,2.4595,2.4598,2.4601,2.4603,2.4615,2.4621,2.462,2.4622,2.4631,2.4639,2.4638,2.4643,2.4651,2.4649,2.4614,2.4609,2.4605,2.4601,2.4651,2.4652,2.4686,2.4686,2.4686]},{"header":{"parameterUnit":"m.s-1","parameterCategory":1,"la1":30.2991,"la2":30.254,"lo1":-89.0895,"lo2":-89.0444,"dy":0.0017,"dx":0.0017,"nx":28,"ny":28,"refTime":"2023-11-21T03:00:00:Z","depth":0,"parameterNumber":3,"parameterNumberName":"V-component_of_WINDS"},"data":[0,0,0,0,0,0,0,0,0,0,0,0,0,0,0,0,0,0,0,0,0,0,0,0,0,0,0,0,0,0,0,0,0,0,0,0,0,0,0,0,0,0,0,0,0,0,0,0,0,0,0,0,0,0,0,0,0,0,-3.9595,-3.9596,0,-3.9651,-3.9652,-3.9653,-3.971,-3.9711,-3.9712,-3.9713,-3.9767,-3.9767,-3.9768,0,0,0,0,0,0,0,0,0,0,0,0,0,-3.9537,-3.9538,-3.9595,-3.9596,-3.9597,-3.9651,-3.9652,-3.9653,-3.971,-3.9711,-3.9712,-3.9713,-3.9766,-3.9767,-3.9768,0,0,0,0,0,0,0,0,0,0,0,0,0,-3.9575,-3.9538,-3.9595,-3.9632,-3.9636,-3.9651,-3.9652,-3.9653,-3.971,-3.9711,-3.9712,-3.9713,-3.9766,-3.9767,-3.9768,-3.9751,0,0,-3.9771,-3.9772,0,0,0,0,0,0,0,0,-3.9572,-3.9577,-3.9626,-3.9629,-3.9634,-3.9675,-3.9652,-3.9686,-3.971,-3.9682,-3.9713,-3.9714,-3.9735,-3.9739,-3.9746,-3.9753,-3.9756,-3.9771,-3.9772,-3.9772,-3.9773,0,0,0,0,0,0,0,-3.957,-3.9575,-3.9617,-3.9626,-3.9631,-3.9646,-3.9652,-3.9658,-3.9701,-3.9684,-3.9688,-3.9695,-3.9737,-3.9745,-3.9748,-3.9756,-3.9771,-3.9772,-3.9773,-3.9773,-3.9755,-3.9754,0,0,0,0,0,0,-3.9562,-3.9572,-3.9616,-3.9619,-3.9606,-3.9646,-3.9653,-3.9661,-3.9701,-3.9708,-3.9693,-3.9697,-3.9743,-3.9747,-3.975,-3.9734,-3.9772,-3.9773,-3.9774,-3.9756,-3.9755,-3.9754,0,0,0,0,0,0,-3.956,-3.9565,-3.9613,-3.9597,-3.9604,-3.9645,-3.9653,-3.9661,-3.9669,-3.9708,-3.9716,-3.9694,-3.9744,-3.9749,-3.9751,-3.9737,-3.9774,-3.9775,-3.9757,-3.9756,-3.9754,-3.9701,0,0,0,0,0,0,-3.9558,-3.9564,-3.9558,-3.9596,-3.9605,-3.9613,-3.9652,-3.9661,-3.9671,-3.9676,-3.971,-3.9717,-3.9745,-3.9749,-3.9752,-3.9739,-3.9776,-3.9759,-3.9757,-3.9755,-3.9704,-3.9697,-3.9692,0,0,0,0,0,-3.9556,-3.9539,-3.9557,-3.9562,-3.9598,-3.9612,-3.9617,-3.9651,-3.967,-3.9664,-3.969,-3.9716,-3.9738,-3.9749,-3.9753,-3.9739,-3.976,-3.9757,-3.9755,-3.9706,-3.9699,-3.9692,0,0,0,0,0,0,-3.9496,-3.9545,-3.9565,-3.956,-3.9582,-3.9622,-3.9615,-3.9641,-3.9656,-3.966,-3.9701,-3.9708,-3.9706,-3.9723,-3.9734,-3.9727,-3.9753,-3.9751,-3.9715,-3.9708,-3.9702,-3.9697,-3.9776,0,0,0,0,0,-3.9482,-3.949,-3.9533,-3.9524,-3.9534,-3.9573,-3.958,-3.9605,-3.9629,-3.9638,-3.9663,-3.9684,-3.9697,-3.9703,-3.9716,-3.9707,-3.9716,-3.97,-3.9694,-3.9689,-3.9687,-3.9685,-3.9679,-3.9745,-3.9745,-3.9745,0,0,-3.9453,-3.9481,-3.9483,-3.9513,-3.9532,-3.954,-3.958,-3.9586,-3.9592,-3.9638,-3.9642,-3.9662,-3.9689,-3.9686,-3.9686,-3.97,-3.9671,-3.9686,-3.9682,-3.9682,-3.9682,-3.9676,-3.967,-3.9744,-3.9744,-3.9744,0,0,-3.9405,-3.9426,-3.9423,-3.9443,-3.9473,-3.95,-3.9499,-3.9536,-3.9552,-3.9557,-3.9593,-3.9601,-3.9621,-3.9639,-3.9651,-3.9614,-3.9639,-3.9617,-3.9585,-3.9583,-3.9577,-3.9573,-3.956,-3.9555,-3.9615,-3.9614,-3.9614,0,-3.9364,-3.9378,-3.9417,-3.9422,-3.9434,-3.948,-3.9477,-3.9494,-3.9526,-3.9534,-3.955,-3.9578,-3.9599,-3.9602,-3.9593,-3.9601,-3.9602,-3.9612,-3.9575,-3.9571,-3.9568,-3.9556,-3.9551,-3.9612,-3.9612,-3.9612,-3.9613,0,-3.9328,-3.9337,-3.933,-3.9363,-3.9375,-3.9375,-3.9415,-3.9423,-3.9448,-3.9473,-3.9479,-3.9507,-3.9527,-3.953,-3.9553,-3.9537,-3.9546,-3.9568,-3.9595,-3.9558,-3.9548,-3.9543,-3.9607,-3.9609,-3.9609,-3.961,0,0,-3.9239,-3.9297,-3.9293,-3.931,-3.9349,-3.9356,-3.936,-3.9383,-3.9389,-3.9411,-3.9415,-3.9433,-3.9455,-3.9468,-3.9494,-3.9493,-3.9463,-3.9516,-3.9517,-3.9505,-3.9449,-3.9431,-3.9425,-3.9482,-3.9481,-3.948,-3.9447,0,-3.9197,-3.9207,-3.9244,-3.9243,-3.9253,-3.9298,-3.9302,-3.9326,-3.9351,-3.9363,-3.939,-3.9402,-3.943,-3.9439,-3.9439,-3.9467,-3.9452,-3.947,-3.9485,-3.9485,-3.9476,-3.942,-3.94,-3.9367,-3.9443,-3.9442,-3.9442,0,-3.9148,-3.9169,-3.917,-3.9211,-3.9217,-3.9219,-3.9244,-3.9255,-3.9285,-3.9303,-3.932,-3.935,-3.9358,-3.9385,-3.9395,-3.9406,-3.9416,-3.9431,-3.943,-3.9432,-3.946,-3.9419,-3.9357,-3.9352,-3.9436,-3.9436,-3.9437,0,-3.9084,-3.9113,-3.9117,-3.913,-3.9178,-3.9179,-3.9199,-3.923,-3.9242,-3.9264,-3.9273,-3.9294,-3.9306,-3.9322,-3.9358,-3.9374,-3.9365,-3.9395,-3.938,-3.9379,-3.9375,-3.9374,-3.9312,-3.9382,-3.9382,-3.9382,-3.9382,0,-3.9032,-3.903,-3.9089,-3.9092,-3.9092,-3.9136,-3.9135,-3.916,-3.9188,-3.9196,-3.9237,-3.9244,-3.9291,-3.9304,-3.9332,-3.9337,-3.9342,-3.9357,-3.9364,-3.9353,-3.9351,-3.9358,-3.9361,-3.9381,-3.9381,-3.9381,-3.9381,0,-3.8959,-3.8998,-3.9007,-3.9053,-3.9065,-3.9063,-3.9103,-3.9108,-3.9137,-3.9147,-3.9152,-3.9197,-3.9214,-3.9252,-3.9279,-3.9298,-3.9297,-3.931,-3.9287,-3.9291,-3.9275,-3.9276,-3.9214,-3.9209,-3.9282,-3.9281,-3.9281,0,-3.8922,-3.8923,-3.8971,-3.898,-3.8999,-3.9014,-3.9027,-3.9072,-3.9084,-3.912,-3.912,-3.9142,-3.916,-3.9186,-3.9221,-3.9242,-3.9256,-3.9234,-3.9259,-3.9249,-3.9256,-3.9255,-3.9256,-3.9227,-3.9226,-3.9225,-3.9224,0,-3.8854,-3.8875,-3.8893,-3.8919,-3.8934,-3.8957,-3.8981,-3.8986,-3.9037,-3.9049,-3.9068,-3.9083,-3.9113,-3.9133,-3.9161,-3.9182,-3.9211,-3.9217,-3.9215,-3.9202,-3.9188,-3.9196,-3.927,-3.9217,-3.9218,-3.9218,-3.9219,-3.9219,-3.8798,-3.8802,-3.8837,-3.8857,-3.888,-3.8903,-3.8911,-3.8942,-3.8959,-3.8988,-3.9013,-3.9031,-3.9063,-3.9104,-3.9123,-3.9137,-3.9152,-3.9148,-3.9147,-3.9146,-3.9141,-3.9188,-3.9142,-3.9143,-3.9143,-3.9143,-3.9143,0,-3.8732,-3.8758,-3.8776,-3.881,-3.8826,-3.8856,-3.8886,-3.8897,-3.8912,-3.894,-3.896,-3.8983,-3.9004,-3.9042,-3.9067,-3.9071,-3.9085,-3.9076,-3.9075,-3.908,-3.9126,-3.9126,-3.9064,-3.9064,-3.9064,-3.9064,-3.9064,-3.9064,-3.87,-3.8707,-3.8733,-3.8754,-3.878,-3.8798,-3.8813,-3.8834,-3.8858,-3.8882,-3.8901,-3.8927,-3.8959,-3.8987,-3.9008,-3.9019,-3.9026,-3.9012,-3.9026,-3.9069,-3.9076,-3.9083,-3.9083,-3.9013,-3.9013,-3.8979,-3.8979,-3.8978]}]]